CAPE
0 103 396 950 219 2 0 0 0 0 0 0 0 0 0 0 0 0 0 71 171 336 196 123 0 0 0 0 1 0 0 0 0 0 0 0 1 6 6 3 8 89 4 0 2 7 5 0 0
0 10 444 598 175 0 0 0 0 0 0 0 0 0 0 0 0 2 48 213 374 406 140 0 0 0 1 0 0 0 0 0 0 0 0 0 0 1 0 0 0 0 0 0 0 0 0 0 0
0 226 597 429 116 31 4 0 0 0 0 0 0 0 0 0 5 30 82 478 505 239 0 0 0 0 0 0 0 0 0 0 0 0 0 0 0 0 0 0 0 0 0 1 0 0 0 0 0
0 58 87 282 124 244 107 0 0 0 0 0 0 0 0 0 0 69 408 572 443 132 11 33 0 0 0 0 0 0 0 0 0 2 4 3 3 5 11 9 5 8 3 1 7 0 0 0 0
0 26 7 65 84 202 137 6 0 0 0 0 0 0 0 0 49 275 442 439 278 109 63 10 2 0 0 0 0 0 0 0 1 3 17 72 80 132 54 6 4 0 0 2 0 0 0 0 0
0 0 4 6 14 92 81 0 0 0 0 0 0 0 0 0 162 401 424 377 371 150 96 22 2 4 2 12 18 47 28 51 211 144 71 152 98 27 0 0 0 0 0 0 0 0 0 0 0
0 0 0 0 15 27 101 0 0 0 0 0 0 0 0 13 341 524 473 482 305 140 119 440 3 48 111 113 162 176 228 301 291 233 167 13 0 0 0 0 0 0 0 0 0 0 0 0 0
0 0 0 0 44 55 21 0 0 0 0 0 0 0 0 2 494 621 543 340 373 195 232 318 126 129 140 439 649 446 389 377 306 15 0 0 0 0 0 0 0 0 0 0 0 0 0 0 0
0 0 0 5 85 133 0 0 0 0 0 0 0 0 0 143 598 522 363 288 323 290 242 268 301 253 400 651 397 444 446 275 0 0 0 0 0 0 0 0 0 0 0 0 0 0 0 0 0
0 0 0 7 162 203 24 0 0 0 0 0 0 0 7 438 543 366 331 326 216 98 147 383 405 381 705 575 451 542 109 0 0 0 0 0 0 0 0 0 0 0 0 0 0 0 0 0 0
0 0 0 0 105 0 0 0 0 0 0 0 0 0 216 490 533 427 439 400 159 38 148 427 615 786 849 475 277 156 0 0 0 0 0 0 0 0 0 0 0 0 0 0 0 0 0 0 0
0 0 0 0 63 0 2 0 0 0 8 0 0 7 327 422 461 458 550 534 348 46 118 472 719 598 511 67 85 4 0 0 0 0 0 0 0 0 0 0 0 0 0 0 0 0 0 0 0
0 0 0 0 0 0 0 0 0 0 0 0 0 37 246 382 604 646 699 626 445 106 109 446 472 488 191 14 0 0 0 0 0 0 0 0 0 0 0 0 0 0 0 0 0 0 0 0 0
0 0 0 0 0 0 0 0 0 0 0 0 0 2 294 366 545 607 639 598 499 263 105 397 457 317 69 0 0 0 0 0 0 0 0 0 0 0 0 0 0 0 0 0 0 0 0 0 0
0 0 0 0 0 0 0 0 0 0 0 0 0 0 33 392 568 393 526 597 563 443 302 185 362 151 1 0 0 0 0 0 0 0 0 0 0 0 0 0 0 0 0 0 0 0 0 0 0
0 0 0 0 0 0 0 59 0 0 0 0 0 0 0 7 343 424 519 659 616 537 484 382 368 45 1 0 0 0 0 0 0 0 0 0 0 0 0 0 0 0 0 0 0 0 0 0 0
0 0 0 0 0 0 0 1 0 0 0 0 0 0 0 0 0 25 156 531 633 583 577 428 90 25 0 0 0 0 0 0 0 0 0 0 0 0 0 0 0 0 0 0 0 0 0 0 0
0 0 0 0 0 0 0 0 0 0 0 0 0 0 0 0 0 2 0 195 521 709 689 283 16 0 0 0 0 0 0 0 0 0 0 0 0 0 0 0 0 0 0 0 0 0 0 0 0
0 38 14 0 0 0 0 10 0 0 0 0 0 0 0 24 0 0 32 137 422 379 282 44 5 0 0 0 0 0 0 0 0 0 0 0 0 0 0 0 0 0 0 0 0 0 0 0 0
0 3 39 35 1 1 0 29 0 0 0 0 0 0 0 0 0 22 68 177 178 140 38 0 0 0 0 0 0 0 0 0 0 0 0 0 0 0 0 0 0 0 0 0 0 0 0 0 0
0 0 35 42 36 2 0 0 0 0 0 0 0 0 0 0 0 0 2 6 6 27 0 0 0 0 0 0 0 0 0 0 0 0 0 0 0 0 0 0 0 0 0 0 0 0 0 0 0
0 1 103 40 67 38 1 0 0 0 0 0 0 0 0 0 0 0 0 0 0 0 0 0 0 0 0 0 0 0 0 0 0 0 0 0 0 0 0 0 0 0 0 0 0 0 0 0 0
13 156 140 41 20 11 0 15 0 0 0 0 0 0 0 0 0 0 0 0 0 0 0 0 0 0 0 0 0 0 0 0 0 0 0 0 0 0 0 0 0 0 0 0 0 0 0 0 0
104 86 20 0 1 6 0 5 0 0 0 0 0 0 0 0 0 0 0 0 0 0 0 0 0 0 0 0 0 0 0 0 0 0 0 0 0 0 0 0 0 0 0 0 0 0 0 0 0
98 51 26 27 4 0 0 0 0 0 0 0 0 0 0 0 0 0 0 0 0 0 0 0 0 0 0 0 0 0 0 0 0 0 0 0 0 0 0 0 0 0 0 0 0 0 0 0 0
23 37 1 0 0 0 0 0 0 0 0 0 0 0 0 0 0 0 0 0 0 0 0 0 0 0 0 0 0 0 0 0 0 0 0 0 0 0 0 0 0 0 0 0 0 0 0 0 0
12 0 0 0 0 0 0 0 0 0 0 0 0 0 0 0 0 0 0 0 0 0 0 0 0 0 0 0 0 0 0 0 0 0 0 0 0 0 0 0 0 0 0 0 0 0 0 0 0
12 0 2 4 0 0 0 0 0 0 0 0 0 0 0 0 0 0 0 0 0 0 0 0 0 0 0 0 0 0 0 0 0 0 0 0 0 0 0 0 0 0 0 0 0 0 0 0 0
0 0 0 0 0 0 0 0 0 0 0 0 0 0 0 0 0 0 0 0 0 0 0 0 0 0 0 0 0 0 0 0 0 0 0 0 0 0 0 0 0 0 0 0 0 0 0 0 0
0 0 0 14 0 0 0 0 0 0 0 0 0 0 0 0 0 0 0 0 0 0 0 0 0 0 0 0 0 0 0 0 0 0 0 0 0 0 0 0 0 0 0 0 0 0 0 0 0
CIN
0 -374 -255 -130 -46 -24 0 0 0 0 0 0 0 0 0 0 0 0 0 -283 -183 -76 -79 -81 0 0 0 0 0 0 0 0 0 0 0 0 0 -2 -1 0 -2 -85 -1 0 -1 -1 -3 0 0
0 -44 -203 -109 -40 0 0 0 0 0 0 0 0 0 0 0 0 -72 -317 -193 -105 -56 -106 0 0 0 0 0 0 0 0 0 0 0 0 0 0 0 0 0 0 0 0 0 0 0 0 0 0
0 -247 -79 -38 -79 -104 -96 0 0 0 0 0 0 0 0 0 -463 -370 -309 -115 -66 -92 -20 0 0 0 0 0 0 0 0 0 0 0 0 0 0 0 0 0 0 0 0 0 0 0 0 0 0
0 -182 -167 -30 -68 -46 -61 0 0 0 0 0 0 0 0 0 -2 -349 -175 -90 -77 -130 -217 -130 0 0 0 0 0 0 0 0 0 0 0 0 -1 0 0 0 0 0 0 0 0 0 0 0 0
0 -202 -145 -101 -91 -70 -84 -40 0 0 0 0 0 0 0 0 -371 -260 -197 -157 -153 -149 -124 -169 0 0 0 0 0 0 0 0 -1 0 -1 -5 -5 -24 -2 -1 0 0 0 0 0 0 0 0 0
0 0 -99 -152 -121 -85 -109 0 0 0 0 0 0 0 0 0 -291 -221 -186 -154 -109 -137 -100 -114 -20 -78 0 -77 -35 -74 -32 -19 -22 -49 -4 -69 -42 0 0 0 0 0 0 0 0 0 0 0 0
0 0 0 -22 -122 -87 -79 0 0 0 0 0 0 0 0 -356 -259 -195 -152 -103 -107 -109 -73 -7 0 -53 -19 -25 -25 -20 -4 -1 -12 -15 -46 -2 0 0 0 0 0 0 0 0 0 0 0 0 0
0 0 0 0 -99 -81 -50 0 0 0 0 0 0 0 0 -309 -268 -182 -145 -141 -81 -74 -34 -16 -33 -26 -25 0 -1 -2 -1 -4 -14 -2 0 0 0 0 0 0 0 0 0 0 0 0 0 0 0
0 0 0 -93 -98 -91 0 0 0 0 0 0 0 0 0 -344 -273 -228 -201 -158 -94 -49 -33 -25 -26 -31 -5 0 -6 0 -1 -6 0 0 0 0 0 0 0 0 0 0 0 0 0 0 0 0 0
0 0 0 -126 -100 -85 -99 0 0 0 0 0 0 0 -151 -358 -303 -291 -250 -189 -152 -142 -72 -16 -12 -10 0 -6 -1 -1 -46 0 0 0 0 0 0 0 0 0 0 0 0 0 0 0 0 0 0
0 0 0 0 -124 0 0 0 0 0 0 0 0 0 -363 -343 -311 -279 -241 -207 -214 -242 -92 -28 -8 0 0 -16 -46 -60 -2 0 0 0 0 0 0 0 0 0 0 0 0 0 0 0 0 0 0
0 0 0 0 -147 0 -161 0 0 0 -168 0 0 -82 -322 -331 -337 -300 -238 -196 -192 -226 -143 -46 -12 -12 -19 -79 -93 -59 0 0 0 0 0 0 0 0 0 0 0 0 0 0 0 0 0 0 0
0 0 0 0 0 0 0 0 0 0 0 0 0 -283 -243 -273 -307 -279 -218 -193 -201 -233 -180 -60 -52 -37 -70 -125 0 -61 0 0 0 0 0 0 0 0 0 0 0 0 0 0 0 0 0 0 0
0 0 0 0 0 0 0 0 0 0 0 0 0 -100 -252 -259 -306 -309 -269 -229 -205 -213 -206 -95 -78 -87 -121 0 0 0 0 0 0 0 0 0 0 0 0 0 0 0 0 0 0 0 0 0 0
0 0 0 0 -12 0 0 0 0 0 0 0 0 0 -349 -293 -323 -296 -272 -224 -184 -166 -160 -153 -108 -124 -37 0 0 0 0 0 0 0 0 0 0 0 0 0 0 0 0 0 0 0 0 0 0
0 0 0 0 0 0 0 -97 0 0 0 0 0 0 0 -406 -278 -294 -264 -210 -196 -165 -137 -136 -120 -171 -46 0 0 0 0 0 0 0 0 0 0 0 0 0 0 0 0 0 0 0 0 0 0
0 0 0 0 0 0 0 -18 0 0 0 0 0 0 0 -176 0 -329 -273 -208 -207 -189 -173 -153 -181 -193 -28 0 0 0 0 0 0 0 0 0 0 0 0 0 0 0 0 0 0 0 0 0 0
0 0 0 0 0 0 0 0 0 0 0 0 0 0 -122 0 -14 -138 -38 -190 -199 -199 -159 -173 -232 0 0 0 0 0 0 0 0 0 0 0 0 0 0 0 0 0 0 0 0 0 0 0 0
0 -5 -2 0 0 0 -44 -58 0 0 0 0 0 0 -1 -230 -1 0 -261 -277 -233 -231 -210 -226 -203 0 0 0 0 0 0 0 0 0 0 0 0 0 0 0 0 0 0 0 0 0 0 0 0
0 -9 -3 -19 -23 -2 0 -49 -1 0 0 0 0 0 0 0 0 -255 -248 -264 -254 -224 -272 0 0 0 0 0 0 0 0 0 0 0 0 0 0 0 0 0 0 0 0 0 0 0 0 0 0
0 0 -14 -5 -50 -41 0 0 0 0 0 0 0 0 0 0 0 0 -166 -173 -159 -310 -46 0 0 0 0 0 0 0 0 0 0 0 0 0 0 0 0 0 0 0 0 0 0 0 0 0 0
0 -7 -16 -22 -11 -4 -12 0 0 0 0 0 0 0 0 0 0 0 0 0 0 0 0 0 0 0 0 0 0 0 0 0 0 0 0 0 0 0 0 0 0 0 0 0 0 0 0 0 0
-52 -33 -19 -47 -32 -18 0 -9 0 0 0 0 0 0 0 0 0 0 0 0 0 0 0 0 0 0 0 0 0 0 0 0 0 0 0 0 0 0 0 0 0 0 0 0 0 0 0 0 0
-76 -32 -57 0 -8 -4 0 -6 0 0 0 0 0 0 0 0 0 0 0 0 0 0 0 0 0 0 0 0 0 0 0 0 0 0 0 0 0 0 0 0 0 0 0 0 0 0 0 0 0
-33 -14 -6 -3 -3 0 0 0 0 0 0 0 0 0 0 0 0 0 0 0 0 0 0 0 0 0 0 0 0 0 0 0 0 0 0 0 0 0 0 0 0 0 0 0 0 0 0 0 0
-29 -23 -3 -1 -1 0 0 0 0 0 0 0 0 0 0 0 0 0 0 0 0 0 0 0 0 0 0 0 0 0 0 0 0 0 0 0 0 0 0 0 0 0 0 0 0 0 0 0 0
-54 0 0 0 0 0 0 0 0 0 0 0 0 0 0 0 0 0 0 0 0 0 0 0 0 0 0 0 0 0 0 0 0 0 0 0 0 0 0 0 0 0 0 0 0 0 0 0 0
-29 0 -13 -16 -1 0 0 0 0 0 0 0 0 0 0 0 0 0 0 0 0 0 0 0 0 0 0 0 0 0 0 0 0 0 0 0 0 0 0 0 0 0 0 0 0 0 0 0 0
0 0 0 0 0 0 0 0 0 0 0 0 0 0 0 0 0 0 0 0 0 0 0 0 0 0 0 0 0 0 0 0 0 0 0 0 0 0 0 0 0 0 0 0 0 0 0 0 0
0 0 -1 -17 0 0 0 0 0 0 0 0 0 0 0 0 0 0 0 0 0 0 0 0 0 0 0 0 0 0 0 0 0 0 0 0 0 0 0 0 0 0 0 0 0 0 0 0 0
Wind_Speed
17 11 13 16 17 16 18 16 14 12 12 13 11 11 11 14 13 15 13 13 15 15 15 15 15 15 15 16 15 15 15 15 15 15 15 15 15 16 16 17 18 19 20 20 21 22 22 23 24
14 12 15 16 17 18 19 16 13 10 12 10 12 12 13 14 14 12 13 12 15 14 14 14 14 14 15 15 16 16 15 15 15 15 15 15 15 16 16 17 18 18 19 20 20 21 21 22 23
14 15 16 16 17 18 19 16 12 10 7 11 13 14 13 13 13 13 12 13 13 13 13 13 13 14 14 14 15 15 15 15 15 15 15 15 16 16 16 17 18 19 19 20 20 21 21 22 22
13 15 16 18 19 19 17 18 11 6 10 12 11 12 13 13 12 11 13 13 13 12 12 13 13 13 13 14 14 15 15 14 14 15 15 15 15 16 17 17 18 19 19 20 21 21 22 21 21
15 17 20 21 21 20 18 17 8 4 10 10 9 10 12 12 12 13 14 14 13 12 12 12 13 13 14 14 14 15 15 15 15 14 14 14 15 17 17 17 17 18 19 19 20 21 22 22 21
17 18 22 23 22 21 20 15 9 9 9 9 10 9 10 10 11 12 13 13 12 12 12 12 13 13 13 13 14 15 15 15 15 14 14 14 15 16 16 17 17 18 18 19 19 20 21 22 21
20 21 25 24 22 23 20 11 10 7 9 9 7 8 11 7 10 13 13 13 12 12 11 11 11 12 12 12 13 14 14 14 14 14 14 14 14 15 15 16 17 17 18 18 19 20 20 21 21
19 22 27 24 22 23 20 14 13 8 10 10 7 11 10 5 11 12 13 13 12 11 11 11 12 12 12 12 13 13 13 13 14 14 14 14 14 14 15 16 16 17 17 18 18 19 20 20 21
18 29 30 25 22 22 18 17 14 14 11 9 6 11 12 10 13 13 12 12 12 12 12 12 13 13 14 13 13 14 14 14 14 14 14 14 14 14 15 15 16 16 17 17 18 19 19 19 20
25 33 31 22 23 22 18 19 15 14 12 12 7 10 6 10 13 11 10 10 11 12 12 14 14 14 14 13 13 13 13 14 14 14 14 14 14 14 14 15 15 16 17 17 18 19 20 20 20
29 39 28 26 23 21 20 20 19 17 17 12 5 3 3 7 9 7 7 10 12 13 13 14 13 13 13 13 12 12 13 13 14 14 14 14 14 14 14 14 14 15 16 17 18 19 20 20 21
37 34 31 29 23 22 23 20 22 18 18 20 15 4 4 6 10 8 7 7 11 12 13 13 11 10 8 8 9 11 12 13 13 13 13 13 13 13 13 13 13 14 15 16 17 18 19 20 22
37 35 32 30 26 25 21 23 25 24 21 23 12 8 7 7 9 6 7 8 10 10 10 10 8 8 5 5 6 9 10 11 12 12 12 12 12 12 12 12 12 13 14 15 16 18 19 21 22
31 37 39 31 30 28 28 26 22 24 21 22 13 9 8 8 9 4 3 4 7 8 9 8 6 6 4 4 4 7 8 10 11 11 11 11 11 10 10 11 12 13 14 15 17 18 19 20 22
35 38 35 36 30 30 27 31 28 23 20 19 17 14 10 8 7 7 7 5 6 3 3 4 5 5 3 2 5 7 8 9 10 9 10 10 10 9 9 10 11 12 14 15 16 18 19 21 22
34 36 42 35 30 29 27 41 27 22 19 19 16 14 12 10 7 5 4 3 3 1 3 1 1 2 2 2 5 7 9 9 9 9 9 9 9 9 9 10 11 12 14 15 17 18 20 22 24
37 42 42 35 30 27 28 35 26 23 20 18 16 13 13 11 12 10 7 4 3 5 8 4 2 2 2 3 6 8 8 9 9 8 8 7 8 8 8 9 10 11 13 15 17 19 20 23 24
40 40 37 40 31 31 31 31 23 22 23 21 21 19 17 14 11 13 7 7 2 3 4 3 1 1 1 4 7 10 10 10 9 8 7 7 7 7 8 9 10 11 14 16 17 19 20 23 25
35 38 38 35 31 32 34 34 29 24 24 23 22 22 21 19 17 13 8 5 3 2 2 3 3 1 0 3 5 9 9 9 9 8 7 7 7 7 8 10 11 12 14 17 18 20 23 24 26
41 38 36 28 27 30 33 36 31 28 27 27 25 23 21 18 15 13 12 8 5 4 3 3 3 3 2 1 7 10 10 10 9 7 7 8 7 7 8 10 12 14 17 18 19 21 24 25 26
38 37 35 31 22 24 26 35 34 31 30 28 26 24 22 19 16 15 10 8 8 6 4 4 4 3 1 1 6 11 11 12 10 9 8 7 8 10 11 13 15 17 18 21 22 23 24 28 27
35 32 30 24 27 31 25 36 31 30 31 28 26 23 21 18 19 17 13 11 8 7 5 3 3 2 3 1 4 8 9 10 10 10 11 12 12 13 15 16 18 20 21 23 24 24 26 27 30
32 29 24 23 26 25 26 31 31 25 29 29 25 23 20 18 19 16 11 7 8 7 4 2 2 3 1 1 5 9 11 12 14 14 15 15 16 17 17 18 20 22 23 25 25 26 27 28 30
21 23 19 22 21 30 28 29 30 28 27 25 23 19 17 16 16 13 10 9 8 5 3 2 3 2 2 4 8 10 12 14 15 16 17 18 19 19 21 21 22 23 25 26 26 27 28 30 32
24 25 23 22 26 27 21 27 31 19 18 19 19 14 14 15 13 12 10 7 5 3 2 2 2 3 5 7 10 13 14 16 17 19 19 20 21 22 23 23 24 25 26 27 28 30 31 33 34
25 22 16 20 22 23 20 26 22 20 21 20 16 12 14 15 14 12 9 6 4 3 2 2 3 5 8 11 13 14 16 17 18 19 19 20 21 22 23 24 25 27 28 29 30 32 33 34 36
22 26 24 14 14 17 19 23 25 18 17 15 14 13 14 13 11 9 8 6 3 2 2 3 5 8 11 12 13 14 14 15 17 18 20 21 22 23 25 26 27 28 30 31 32 34 35 36 37
21 19 19 17 18 18 18 18 18 17 17 15 13 11 11 9 8 8 7 5 5 5 5 6 7 9 10 12 13 14 15 17 19 20 22 23 24 25 26 28 29 31 32 32 33 35 36 37 37
16 19 17 15 17 16 18 15 15 16 17 12 9 9 8 8 7 7 6 6 6 7 7 8 9 10 11 12 14 16 18 19 21 22 23 25 26 27 29 30 31 32 33 34 36 36 36 37 38
20 16 15 16 18 16 17 19 17 18 17 9 7 7 8 7 6 6 6 6 7 7 8 10 11 12 13 15 17 19 20 21 23 25 26 26 28 29 30 31 32 34 35 35 35 37 37 38 39
Wind_Direction
310 326 317 310 304 305 302 309 323 341 340 341 359 357 5 358 360 345 39 58 86 90 85 83 76 71 68 62 53 50 38 31 29 28 26 25 24 23 16 14 11 18 16 17 17 18 16 20 20
314 320 313 307 298 296 297 307 316 340 344 12 354 356 353 352 2 28 54 63 89 85 80 76 75 70 65 61 55 53 45 37 33 31 32 30 28 25 23 21 19 19 20 21 23 24 22 19 18
307 306 303 299 295 291 297 308 314 333 32 350 344 341 356 6 14 70 25 79 83 77 74 70 71 67 64 62 57 53 48 40 37 34 33 33 32 30 29 29 26 24 23 24 23 22 20 19 19
302 304 303 291 289 293 297 307 314 334 327 335 353 347 360 359 51 42 77 81 79 75 73 70 70 67 66 65 60 56 52 44 37 35 35 39 39 37 34 31 28 24 20 23 25 22 19 18 19
296 296 287 287 286 289 297 304 315 323 322 332 351 349 355 23 33 72 85 85 83 78 74 72 75 73 72 69 65 61 56 50 39 30 29 35 40 40 28 23 25 23 19 21 21 20 18 16 16
284 290 282 280 283 288 291 302 309 298 318 332 333 350 356 21 59 81 82 79 77 79 77 75 77 75 73 70 66 65 60 56 38 22 27 37 29 24 26 22 20 16 14 16 16 16 15 14 15
277 278 277 280 284 285 288 307 296 284 310 320 349 344 346 34 68 87 83 78 76 76 75 72 71 74 73 70 70 65 57 41 37 30 24 18 20 19 18 17 15 13 14 14 13 14 15 15 14
278 279 275 277 279 284 290 291 295 278 298 323 336 326 338 66 94 88 83 81 80 80 80 77 78 78 77 74 72 69 54 42 33 18 20 16 16 19 18 17 15 15 14 14 14 12 13 13 12
278 270 269 272 276 283 290 285 291 287 301 306 315 334 336 107 103 94 87 83 84 88 91 88 90 88 85 81 73 62 53 36 31 26 20 17 15 19 18 16 16 16 17 17 15 14 12 11 9
266 266 267 275 277 281 285 282 279 280 283 287 300 321 33 111 117 104 97 91 97 101 104 107 103 99 93 75 66 52 42 34 28 25 25 20 18 16 18 19 20 21 22 21 20 17 14 11 9
267 263 270 272 274 279 281 281 278 272 276 275 247 265 111 124 127 112 101 102 108 112 111 117 110 105 99 86 64 49 42 35 31 32 30 25 19 18 19 21 22 23 23 20 18 13 10 10 6
266 268 267 269 271 273 274 280 277 269 268 283 277 221 158 153 145 136 121 105 110 117 121 123 114 105 94 69 41 50 43 35 34 33 32 29 24 23 23 24 24 21 16 16 12 12 11 8 5
266 266 268 266 267 268 272 274 276 273 271 279 281 219 196 179 156 144 123 114 114 122 123 122 110 115 89 67 21 36 36 27 31 32 28 25 26 27 25 22 19 19 18 16 13 9 7 4 2
275 266 264 266 263 264 265 270 276 277 273 275 264 237 219 195 171 174 159 138 136 127 132 124 118 115 90 69 27 22 23 11 19 28 24 21 24 28 28 25 19 15 11 9 6 3 360 357 355
269 266 265 257 259 262 263 263 265 276 277 271 267 258 250 229 189 189 166 166 151 145 139 137 132 118 68 41 349 2 27 13 16 19 18 17 19 24 24 17 10 7 3 1 359 356 353 351 350
268 261 258 256 254 260 257 259 264 271 273 269 268 261 258 252 214 240 189 224 165 253 198 214 265 144 86 34 347 359 354 2 7 10 10 14 16 19 12 9 4 3 359 356 352 350 348 345 344
262 256 254 257 252 258 253 260 263 267 267 266 267 267 266 261 262 268 267 251 204 175 174 186 210 215 319 1 342 343 354 356 360 4 8 14 17 15 9 4 2 1 356 351 348 345 343 338 338
257 254 255 251 253 252 253 258 265 267 266 265 268 271 271 262 250 271 257 188 213 164 187 204 242 272 348 340 335 338 350 352 354 358 4 11 8 5 1 356 355 353 348 343 340 338 338 335 332
258 256 251 254 252 252 252 256 260 265 268 268 269 270 271 269 275 280 275 275 276 289 236 219 178 161 140 331 330 331 347 344 345 348 354 358 355 354 349 344 343 341 337 335 333 332 330 329 329
247 250 249 253 252 251 253 255 259 261 265 267 268 271 272 275 275 278 280 276 265 249 248 207 190 177 185 306 324 339 346 341 342 347 345 344 345 342 338 335 333 331 330 329 327 326 325 326 327
241 243 245 245 251 257 256 256 257 261 264 268 272 273 276 275 275 284 284 276 280 262 252 212 189 175 186 295 341 344 345 343 337 335 334 334 333 331 328 326 325 324 324 322 321 320 320 319 321
235 235 243 247 242 247 257 255 260 261 262 266 269 273 276 277 281 290 288 283 274 283 277 255 200 186 169 249 332 337 339 338 334 332 332 330 327 325 323 322 321 320 319 318 317 317 316 316 315
231 233 243 252 250 252 256 258 261 267 265 267 271 275 275 280 285 288 288 283 289 289 268 244 209 168 193 290 326 331 333 335 340 334 331 329 329 327 323 321 319 318 317 316 315 315 314 313 313
229 232 250 251 254 250 255 258 264 266 271 274 278 274 278 283 291 298 300 297 296 294 259 233 181 226 290 318 326 325 327 329 329 329 328 328 328 328 327 325 322 320 318 317 316 314 313 311 311
226 223 238 244 246 251 264 261 262 284 284 282 284 284 284 289 293 297 299 299 297 283 259 234 249 291 316 321 322 324 324 323 323 324 325 325 324 325 325 324 323 322 320 318 316 314 312 310 309
219 223 241 247 247 256 266 263 276 280 281 284 292 297 291 291 294 301 309 312 305 293 272 276 299 315 322 324 325 326 325 325 327 328 329 328 327 326 325 323 322 321 319 318 316 314 312 311 310
228 224 241 270 274 266 269 274 272 289 286 289 294 294 295 299 303 313 321 327 338 346 349 344 335 332 332 333 334 336 338 337 335 333 331 329 328 327 325 324 322 321 319 318 316 314 313 312 311
236 238 248 259 264 266 277 287 280 289 290 291 294 299 304 314 323 330 337 352 4 9 2 356 351 348 347 348 345 342 340 338 335 333 330 329 328 327 324 323 321 320 319 318 317 315 314 312 311
249 242 255 263 272 278 280 295 298 298 294 300 303 310 319 327 334 343 359 11 15 13 11 5 359 353 348 346 344 341 338 336 334 332 331 329 328 326 324 323 322 321 319 318 316 315 314 312 312
245 265 272 273 277 286 290 288 303 298 307 328 332 325 328 340 357 11 20 21 17 14 6 357 350 348 345 343 340 338 337 335 333 331 329 328 327 326 325 323 321 320 319 319 317 316 315 314 312